Location: G�vre
(47.6940°N, 3.3525°W)
Time: 23:57:38
(UTC+00:00)

Daily predictions for brighter satellites

Satellite Brightness Start Highest point End
(mag) Time Altitude Azimuth Time Altitude Azimuth Time Altitude Azimuth
Meteor 1-25 Rocket 4.4 16:49:36 10° N 16:55:02 50° ENE 17:00:28 10° SSE
MOS 1 Rocket 4.1 16:51:11 10° N 16:56:06 58° WNW 17:00:42 10° SSW
Cosmos 468 Rocket 4.2 16:51:22 10° S 16:56:23 55° ESE 17:01:29 10° NNE
Cosmos 1500 Rocket 3.7 16:52:04 10° N 16:56:27 57° ENE 17:00:47 10° SSE
USA 306 3.8 16:55:26 10° WNW 16:59:22 35° N 17:03:16 10° ENE
Cosmos 1464 Rocket 4.2 16:54:40 10° S 17:01:04 86° W 17:07:29 10° N
Cosmos 1898 Rocket 3.5 16:56:22 10° NNW 17:01:38 70° ENE 17:06:49 10° SSE
Cosmos 2278 4.4 16:56:52 10° NNW 17:01:57 32° NE 17:06:59 10° ESE
USA 276 4.3 16:59:21 10° W 17:02:06 28° SSW 17:04:50 10° SSE
Cosmos 1602 4.2 16:59:53 10° N 17:03:31 38° ENE 17:07:09 10° SE
Sich 1 3.7 16:59:44 10° N 17:03:37 32° ENE 17:07:30 10° SE
ADEOS 4.1 16:58:33 10° S 17:03:44 65° WSW 17:08:57 10° NNW
Cosmos 2221 2.8 16:59:42 10° SSW 17:03:58 73° W 17:08:18 10° N
Cosmos 1939 Rocket 3.2 17:01:13 10° SE 17:05:09 47° ENE 17:09:05 10° N
Nadezhda 4 Rocket 4.1 16:59:14 10° N 17:05:35 87° E 17:11:56 10° S
Cosmos 2084 4.1 17:01:26 10° NW 17:05:42 64° SW 17:10:07 10° SSE
ARGOS 4.3 17:03:22 10° ESE 17:07:18 21° ENE 17:11:12 10° NNE
Cosmos 1805 Rocket 3.8 17:04:11 10° N 17:08:21 45° ENE 17:12:31 10° SSE
Cosmos 1833 Rocket 2.8 17:05:14 10° SSW 17:10:47 65° ESE 17:16:23 10° NNE
Cosmos 1842 Rocket 4.0 17:09:23 10° SSW 17:13:49 68° W 17:18:19 10° N
COSMOS 2406 3.4 17:09:10 10° S 17:14:44 55° ESE 17:20:20 10° NE
Spot 1 4.4 17:10:13 10° NNE 17:14:58 84° ESE 17:19:57 10° SSW
NOSS 2-2 (C) 4.3 17:10:26 10° NW 17:15:23 61° NE 17:22:18 10° SE
USA 307 3.8 17:14:43 10° WNW 17:18:38 34° N 17:21:59 13° ENE
Cosmos 1606 4.3 17:16:48 10° SW 17:20:17 35° WNW 17:23:48 10° N
CZ-2C R/B 3.2 17:16:45 10° S 17:21:38 73° WSW 17:26:24 10° NNW
Cosmos 1092 Rocket 4.0 17:16:17 10° N 17:22:38 71° E 17:28:57 10° SSE
Cosmos 1782 3.3 17:19:09 10° SSE 17:22:52 39° E 17:26:37 10° NNE
USA 267 3.3 17:16:35 10° NE 17:23:08 77° SE 17:29:41 10° SW
Cosmos 1428 Rocket 4.5 17:17:16 10° N 17:23:22 63° ENE 17:29:28 10° SSE
CZ-2C R/B 3.6 17:22:42 10° NE 17:26:53 24° E 17:31:01 10° SE
Cosmos 1763 Rocket 3.6 17:22:42 10° SSW 17:27:47 79° WNW 17:32:56 10° NNE
Cosmos 1500 3.4 17:24:38 10° N 17:28:16 46° ENE 17:31:51 10° SSE
CZ-4C R/B 3.0 17:22:28 10° NW 17:29:22 59° NE 17:37:34 10° ESE
CZ-2D R/B 3.6 17:26:01 10° SE 17:29:36 39° ENE 17:33:11 10° N
H-2A R/B 2.2 17:28:00 10° SE 17:32:54 46° ENE 17:37:42 10° N
Cosmos 1340 Rocket 4.1 17:29:03 10° NNW 17:32:57 45° W 17:36:50 10° SSW
CZ-4B R/B 3.6 17:29:28 10° SE 17:34:26 39° ENE 17:39:21 10° N
Cosmos 841 Rocket 3.6 17:30:10 10° S 17:35:12 56° ESE 17:40:14 10° NNE
ATLAS CENTAUR R/B 3.9 17:33:38 10° NW 17:35:51 13° NNW 17:38:09 10° N
PAYLOAD B 4.3 17:30:44 10° SE 17:36:12 57° ENE 17:41:41 10° N
Cosmos 1937 Rocket 3.7 17:34:37 10° NNW 17:39:59 79° WSW 17:45:17 10° SSE
USA 308 3.8 17:37:23 10° WNW 17:41:19 35° N 17:43:39 20° ENE
SMAP 3.2 17:37:47 10° S 17:42:26 79° WSW 17:47:07 10° NNW
Lacrosse 5 rocket 1.9 17:39:04 10° NW 17:42:43 37° NNE 17:44:49 22° E
COSMO-SKYMED 1 3.4 17:41:39 16° NE 17:44:18 29° E 17:48:04 10° SSE
Cosmos 1125 Rocket 4.4 17:40:01 10° N 17:44:26 26° NE 17:47:31 16° E
Cosmos 1627 Rocket 4.4 17:38:40 10° N 17:44:53 87° E 17:51:00 10° S
Cosmos 921 Rocket 4.4 17:42:42 10° SE 17:45:21 18° E 17:45:21 18° E
AQUARIUS 4.2 17:42:10 10° SSE 17:46:39 84° WSW 17:51:10 10° NNW
COSMOS 2455 2.8 17:41:22 10° SSW 17:47:20 70° ESE 17:52:28 15° NE
Meteor 2-21 4.4 17:41:39 10° N 17:47:46 83° E 17:53:48 10° S
Cosmos 372 Rocket 3.9 17:42:38 10° NNW 17:47:54 80° ENE 17:53:09 10° SSE
ATLAS 2AS CENTAUR R/B 4.3 17:43:30 10° NW 17:49:25 23° N 17:54:01 13° NE
Cosmos 2279 Rocket 4.1 17:44:08 10° SSE 17:50:05 51° E 17:56:04 10° NNE
ISS -3.5 17:47:06 10° WNW 17:50:30 71° SSW 17:53:03 16° SE
Cosmos 1633 Rocket 3.3 17:46:34 10° N 17:50:46 45° ENE 17:54:59 10° SSE
Cosmos 2360 Rocket 3.6 17:47:46 10° N 17:51:38 18° NE 17:52:11 18° NE
Cosmos 44 Rocket 3.6 17:48:03 10° NNW 17:52:47 43° NE 17:56:04 18° ESE
YAOGAN 1 4.2 17:56:50 17° NNE 17:56:50 17° NNE 17:58:21 10° NNE
SL-24 R/B - RUBIN 2 3.7 17:52:01 10° NW 17:56:33 74° SW 18:00:51 10° SSE
Meteor 1-11 Rocket 4.4 17:52:11 10° N 17:57:07 30° ENE 18:02:05 10° SE
USA 234 3.4 17:50:46 10° SE 17:57:19 78° SW 18:03:53 10° NW
Cosmos 1666 2.6 17:53:54 10° N 17:57:34 55° ENE 18:01:13 10° SSE
Meteor 1-26 Rocket 4.3 17:51:41 10° S 17:57:41 87° E 18:03:46 10° NNE
Cosmos 1151 Rocket 3.0 17:56:41 10° S 18:00:55 57° E 18:04:41 13° NNE
PSLV R/B 3.8 17:58:00 10° S 18:01:40 77° WSW 18:05:26 10° NNW
USA 305 3.6 18:03:31 10° WNW 18:07:32 39° NNE 18:08:40 32° NE
Cosmos 1634 Rocket 4.1 18:02:06 10° SSW 18:08:25 80° W 18:14:48 10° N
Cosmos 2026 Rocket 4.4 18:05:25 10° NNW 18:11:28 63° W 18:17:25 10° S
Cosmos 2322 Rocket 2.9 18:07:39 10° NNW 18:12:47 33° NE 18:13:54 31° ENE
Okean O Rocket 1.6 18:08:44 10° SSE 18:13:07 60° ENE 18:17:31 10° N
Cosmos 1697 Rocket 4.3 18:08:07 10° NW 18:13:11 36° WSW 18:18:14 10° S
Landsat 5 3.8 18:16:57 41° E 18:16:57 41° E 18:20:42 10° S
Cosmos 1666 Rocket 3.6 18:13:07 10° NNW 18:17:35 80° W 18:21:59 10° S
Cosmos 1980 Rocket 2.7 18:12:38 10° NNW 18:18:14 62° WSW 18:23:46 10° S
Cosmos 540 Rocket 4.2 18:13:50 10° SW 18:18:47 51° WNW 18:23:37 11° NNE
Cosmos 1470 Rocket 3.6 18:16:31 10° N 18:20:55 55° ENE 18:25:19 10° SSE
Cosmos 1812 2.8 18:17:18 10° SSW 18:21:08 76° W 18:23:53 18° N
Cosmos 1328 Rocket 3.5 18:17:13 10° S 18:21:38 67° E 18:24:03 26° NNE
ERBS 4.5 18:20:37 10° NW 18:22:15 15° N 18:22:15 15° N
SJ-11-01 4.2 18:18:16 10° SSE 18:23:01 77° ENE 18:27:46 10° N
Meteor 1-5 Rocket 4.4 18:22:25 10° NNW 18:28:26 79° W 18:34:19 10° S
SL-16 R/B 2.2 18:25:50 10° NNW 18:31:26 54° ENE 18:33:20 37° ESE
SKYMED 2 3.4 18:30:16 28° NNE 18:32:33 87° ESE 18:36:53 10° SSW
Cosmos 1570 Rocket 3.9 18:27:19 10° SSW 18:32:34 90° W 18:35:27 28° NNE
Cosmos 1814 Rocket 4.0 18:29:08 10° SSW 18:34:21 77° WNW 18:37:31 24° NNE
Cosmos 2082 Rocket 2.5 18:29:15 10° SW 18:34:53 64° WNW 18:38:46 21° NNE
Cosmos 2298 Rocket 3.9 18:29:39 10° NNW 18:34:59 69° ENE 18:38:48 19° SSE
Cosmos 1655 Rocket 3.9 18:28:43 10° N 18:35:08 70° E 18:41:28 10° SSE
Meteor 2-8 Rocket 4.3 18:29:00 10° S 18:35:09 82° E 18:41:21 10° N
ATLAS CENTAUR R/B 2.9 18:28:28 10° WSW 18:36:24 50° NW 18:37:44 37° NNE
USA 306 3.4 18:35:45 10° WNW 18:39:34 46° N 18:39:34 46° N
Cosmos 2180 Rocket 4.5 18:34:48 10° S 18:41:09 89° WNW 18:47:28 10° N
CZ-2C R/B 3.8 18:40:53 10° S 18:42:00 11° SSE 18:42:01 11° SSE
Cosmos 2333 Rocket 3.8 18:40:03 10° N 18:42:44 20° NNE 18:42:44 20° NNE
Cosmos 2278 4.5 18:40:50 10° NW 18:46:21 52° WSW 18:51:50 10° S
Cosmos 1818 3.6 18:41:10 10° NW 18:46:40 80° SW 18:49:43 27° SSE
ARGOS 3.4 18:41:38 10° S 18:47:02 70° WSW 18:52:27 10° NNW
NOAA 15 4.4 18:44:49 10° SSE 18:50:05 73° ENE 18:55:22 10° N
GEOS 3 Rocket 3.5 18:54:52 67° ENE 18:55:11 69° NE 19:00:21 10° NW
Cosmos 1833 Rocket 4.5 18:50:30 10° WSW 18:55:11 26° NW 18:59:15 13° N
USA 307 3.8 18:54:58 10° WNW 18:58:01 40° NNW 18:58:01 40° NNW
Meteor 1-27 Rocket 4.1 18:57:40 10° S 19:01:42 47° SSE 19:01:42 47° SSE
Cosmos 1515 Rocket 4.1 19:00:40 10° SSW 19:04:04 52° SSW 19:04:04 52° SSW
Cosmos 2219 Rocket 4.0 19:00:32 10° N 19:02:19 17° N 19:02:19 17° N
USA 267 3.7 19:03:55 38° NNE 19:05:59 51° NNW 19:12:14 10° W
SL-08 RB Rocket 4.2 19:01:33 10° S 19:06:08 60° W 19:10:42 10° NNW
CZ-2C R/B 3.3 19:03:18 15° N 19:07:28 50° WNW 19:12:26 10° SW
Cosmos 2150 Rocket 4.3 19:06:44 10° NNW 19:11:52 65° WSW 19:13:51 37° S
H-2A R/B 4.1 19:08:17 10° SSW 19:12:31 26° W 19:16:43 10° NW
CZ-4C R/B 4.0 19:11:06 10° NW 19:18:04 46° WSW 19:26:01 10° S
COSMO-SKYMED 1 4.2 19:18:52 25° NNW 19:20:27 32° WNW 19:24:19 10° SW
Lacrosse 5 rocket 3.0 19:18:03 10° WNW 19:20:26 32° W 19:20:26 32° W
Cosmos 921 Rocket 4.3 19:19:22 10° SW 19:22:12 36° WSW 19:22:12 36° WSW
ISS -0.6 19:25:01 10° WSW 19:26:04 13° WSW 19:26:04 13° WSW
Cosmos 1125 Rocket 4.2 19:21:42 10° NNW 19:26:49 53° WSW 19:27:56 44° SSW
COSMOS 2455 4.3 19:28:33 10° W 19:33:47 30° NW 19:35:38 26° N
Cosmos 2360 Rocket 3.4 19:30:55 10° NNW 19:33:59 33° NNW 19:33:59 33° NNW
ATLAS 5 CENTAUR R/B 4.2 19:37:49 10° NW 19:40:25 22° WNW 19:40:25 22° WNW
ATLAS 2AS CENTAUR R/B 4.0 19:36:24 10° NW 19:41:27 28° N 19:41:27 28° N
Okean O Rocket 4.4 19:47:02 10° SW 19:49:51 16° W 19:52:41 10° NW
Cosmos 2322 Rocket 3.3 19:51:34 10° NW 19:55:46 41° WNW 19:55:46 41° WNW
SL-16 R/B 4.0 20:10:31 10° NW 20:15:12 27° WSW 20:15:18 27° WSW
